This is the latest recevied weather packets stored in our database for station/object KC1ELF. If no packets are shown the sender has not sent any weather packets the latest 10 day(s).
| Time | Temp. | Humidity | Pressure | Rain* | Wind** | Luminosity | Snow |
|---|---|---|---|---|---|---|---|
| 1777665695 | 17.22° C | 35% | 1007.8 hPa | 0 mm | - | - | - |
| 1777665096 | 17.22° C | 38% | 1008 hPa | 0 mm | - | - | - |
| 1777664496 | 17.22° C | 37% | 1008.2 hPa | 0 mm | - | - | - |
| 1777663897 | 16.67° C | 36% | 1008.2 hPa | 0 mm | - | - | - |
| 1777663296 | 16.67° C | 34% | 1008.5 hPa | 0 mm | - | - | - |
| 1777662695 | 16.67° C | 37% | 1008.4 hPa | 0 mm | - | - | - |
| 1777662095 | 16.67° C | 39% | 1008.2 hPa | 0 mm | - | - | - |
| 1777661497 | 17.22° C | 40% | 1008.2 hPa | 0 mm | - | - | - |
| 1777660897 | 16.67° C | 41% | 1008.4 hPa | 0 mm | - | - | - |
| 1777660297 | 17.22° C | 39% | 1008.5 hPa | 0 mm | - | - | - |
| 1777659695 | 17.22° C | 42% | 1008.4 hPa | 0 mm | - | - | - |
| 1777659096 | 16.67° C | 41% | 1008.5 hPa | 0 mm | - | - | - |
| 1777658496 | 17.22° C | 39% | 1008.3 hPa | 0 mm | - | - | - |
| 1777657896 | 16.67° C | 44% | 1008.5 hPa | 0 mm | - | - | - |
| 1777657296 | 16.11° C | 41% | 1008.5 hPa | 0 mm | - | - | - |
| 1777656696 | 17.22° C | 38% | 1008.5 hPa | 0 mm | - | - | - |
| 1777656096 | 17.22° C | 42% | 1008.4 hPa | 0 mm | - | - | - |
| 1777655496 | 17.78° C | 43% | 1008.5 hPa | 0 mm | - | - | - |
| 1777654895 | 17.78° C | 42% | 1008.7 hPa | 0 mm | - | - | - |
| 1777654296 | 17.78° C | 45% | 1008.6 hPa | 0 mm | - | - | - |
| 1777653698 | 16.67° C | 44% | 1008.7 hPa | 0 mm | - | - | - |
| 1777653097 | 16.67° C | 42% | 1008.8 hPa | 0 mm | - | - | - |
| 1777652496 | 16.11° C | 47% | 1008.9 hPa | 0 mm | - | - | - |
| 1777651895 | 15.56° C | 46% | 1009 hPa | 0 mm | - | - | - |
| 1777651296 | 15° C | 46% | 1009 hPa | 0 mm | - | - | - |
* Rain latest hour (hover to see other rain measurements)
** Current wind speed in m/s (hover to see current wind gust speed)